Denver, CO

11:04 AM MDT on May 24, 2017 (GMT -0600)
Front Range

Weather History for KFTG - July, 2013

Change the Weather History Date:

Tuesday, July 16, 2013

  Actual Average (KBKF) Record (KBKF)
Temperature  
Mean Temperature 70 °F -  
Max Temperature 82 °F 86 °F 100 °F (2005)
Min Temperature 59 °F 59 °F 55 °F (2015)
Cooling Degree Days 6    
Growing Degree Days 20 (Base 50)    
Moisture  
Dew Point 51 °F    
Average Humidity 58    
Maximum Humidity 83    
Minimum Humidity 26    
Precipitation  
Precipitation 0.00 in - - ()
Sea Level Pressure  
Sea Level Pressure 30.24 in    
Wind  
Wind Speed 14 mph (SSE)    
Max Wind Speed 23 mph    
Max Gust Speed 31 mph    
Visibility 10 miles    
Events      
Averages and records for this station are not official NWS values.
T = Trace of Precipitation, MM = Missing Value Source: NWS Daily Summary

Daily Weather History Graph

Daily Weather History Graph

Search for Another Location

Airport or City:

Trip Planner

Search our weather history database for the weather conditions in past years. The results will help you decide how hot, cold, wet, or windy it might be!

Date:

Astronomy

Jul. 16, 2013 Rise Set
Actual Time 5:43 AM MDT 8:24 PM MDT
Civil Twilight 5:11 AM MDT 8:56 PM MDT
Nautical Twilight 4:32 AM MDT 9:35 PM MDT
Astronomical Twilight 3:47 AM MDT 10:19 PM MDT
Moon 2:09 PM MDT (7/16) 12:14 AM MDT (7/16)
Length of Visible Light 15h 44m
Length of Day
14h 40m
First Quarter, 57% of the Moon is Illuminated
Jul 16
First Quarter
Jul 22
Full
Jul 29
Last Quarter
Aug 6
New
Aug 14
First Quarter

Hourly Weather History & Observations

Time (MDT) Temp. Dew Point Humidity Pressure Visibility Wind Dir Wind Speed Gust Speed Precip Events Conditions
12:16 AM 62.6 °F 50.0 °F 63% 30.24 in 10.0 mi SSE 16.1 mph - N/A   Clear
12:36 AM 62.6 °F 50.0 °F 63% 30.24 in 10.0 mi SSE 13.8 mph 20.7 mph N/A   Clear
12:56 AM 62.6 °F 50.0 °F 63% 30.24 in 10.0 mi SSE 15.0 mph 20.7 mph N/A   Clear
1:16 AM 62.6 °F 50.0 °F 63% 30.23 in 10.0 mi South 12.7 mph 18.4 mph N/A   Clear
1:36 AM 62.6 °F 50.0 °F 63% 30.23 in 10.0 mi South 11.5 mph 17.3 mph N/A   Clear
1:55 AM 62.6 °F 50.0 °F 63% 30.22 in 10.0 mi South 10.4 mph - N/A   Clear
2:16 AM 60.8 °F 50.0 °F 68% 30.23 in 10.0 mi South 10.4 mph - N/A   Clear
2:35 AM 60.8 °F 50.0 °F 68% 30.22 in 10.0 mi South 12.7 mph - N/A   Clear
2:55 AM 62.6 °F 50.0 °F 63% 30.21 in 10.0 mi South 13.8 mph 20.7 mph N/A   Clear
3:16 AM 60.8 °F 50.0 °F 68% 30.21 in 10.0 mi South 12.7 mph - N/A   Clear
3:36 AM 60.8 °F 50.0 °F 68% 30.20 in 10.0 mi South 10.4 mph - N/A   Clear
3:56 AM 60.8 °F 50.0 °F 68% 30.20 in 10.0 mi South 11.5 mph - N/A   Clear
4:16 AM 60.8 °F 50.0 °F 68% 30.20 in 10.0 mi South 12.7 mph - N/A   Clear
4:36 AM 60.8 °F 50.0 °F 68% 30.20 in 10.0 mi South 12.7 mph - N/A   Clear
4:56 AM 60.8 °F 50.0 °F 68% 30.20 in 10.0 mi South 12.7 mph - N/A   Clear
5:15 AM 60.8 °F 50.0 °F 68% 30.20 in 10.0 mi South 10.4 mph - N/A   Clear
5:35 AM 59.0 °F 50.0 °F 72% 30.20 in 10.0 mi South 11.5 mph - N/A   Clear
5:56 AM 60.8 °F 48.2 °F 63% 30.20 in 10.0 mi South 11.5 mph - N/A   Clear
6:16 AM 60.8 °F 48.2 °F 63% 30.20 in 10.0 mi South 9.2 mph - N/A   Clear
6:36 AM 60.8 °F 48.2 °F 63% 30.20 in 10.0 mi South 10.4 mph - N/A   Clear
6:56 AM 62.6 °F 50.0 °F 63% 30.21 in 10.0 mi South 9.2 mph - N/A   Clear
7:16 AM 62.6 °F 50.0 °F 63% 30.22 in 10.0 mi South 11.5 mph 16.1 mph N/A   Clear
7:36 AM 64.4 °F 50.0 °F 59% 30.22 in 10.0 mi South 12.7 mph - N/A   Clear
7:52 AM 68.0 °F 50.0 °F 52% 30.23 in 40.0 mi SSE 12.7 mph 18.4 mph N/A   Clear
7:54 AM 68.0 °F 50.0 °F 52% 30.23 in 10.0 mi South 13.8 mph 18.4 mph N/A   Clear
8:48 AM 71.6 °F 48.2 °F 43% 30.24 in 40.0 mi South 11.5 mph - N/A   Clear
10:51 AM 77.0 °F 46.4 °F 34% 30.25 in 40.0 mi SSE 11.5 mph 18.4 mph N/A   Partly Cloudy
11:55 AM 77.0 °F 46.4 °F 34% 30.25 in 40.0 mi SSE 13.8 mph 24.2 mph N/A   Partly Cloudy
1:48 PM 82.4 °F 46.4 °F 28% 30.24 in 40.0 mi South 11.5 mph 26.5 mph N/A   Partly Cloudy
2:48 PM 82.4 °F 46.4 °F 28% 30.24 in 40.0 mi SE 23.0 mph 31.1 mph N/A   Partly Cloudy
4:48 PM 82.4 °F 44.6 °F 26% 30.23 in 30.0 mi SSE 18.4 mph 27.6 mph N/A   Partly Cloudy
5:48 PM 82.4 °F 46.4 °F 28% 30.24 in 30.0 mi SE 23.0 mph 29.9 mph N/A   Partly Cloudy
6:48 PM 80.6 °F 46.4 °F 30% 30.24 in 30.0 mi SSE 23.0 mph 31.1 mph N/A   Partly Cloudy
7:48 PM 77.0 °F 46.4 °F 34% 30.25 in 30.0 mi SSE 16.1 mph 25.3 mph N/A   Partly Cloudy
8:56 PM 71.6 °F 50.0 °F 46% 30.27 in 10.0 mi SSE 17.3 mph - N/A   Clear
9:16 PM 71.6 °F 51.8 °F 50% 30.29 in 10.0 mi SSE 17.3 mph 25.3 mph N/A   Clear
9:35 PM 69.8 °F 55.4 °F 60% 30.30 in 10.0 mi SE 20.7 mph 24.2 mph N/A   Clear
9:56 PM 68.0 °F 55.4 °F 64% 30.30 in 10.0 mi SSE 19.6 mph 28.8 mph N/A   Clear
10:16 PM 68.0 °F 57.2 °F 68% 30.31 in 10.0 mi SSE 18.4 mph 25.3 mph N/A   Clear
10:35 PM 68.0 °F 57.2 °F 68% 30.30 in 10.0 mi SSE 17.3 mph 27.6 mph N/A   Clear
10:56 PM 66.2 °F 59.0 °F 78% 30.31 in 10.0 mi SSE 18.4 mph 23.0 mph N/A   Clear
11:16 PM 66.2 °F 59.0 °F 78% 30.31 in 10.0 mi SSE 18.4 mph - N/A   Clear
11:36 PM 64.4 °F 59.0 °F 83% 30.31 in 10.0 mi SSE 19.6 mph 24.2 mph N/A   Clear
11:55 PM 64.4 °F 57.2 °F 77% 30.31 in 10.0 mi SSE 17.3 mph 24.2 mph N/A   Clear